Flag for U.S.A. Weather past 2 weeks in Corpus Christi, Texas, U.S.A.

74 °F


Feels Like: 71 °F
Forecast: 59 / 74 °F
Wind: 15 mph from Southeast

Location: Corpus Christi International Airport

Current Time: Nov 27, 2015 at 7:09:07 PM

Latest Report: Nov 27, 2015 at 5:51 PM

Visibility: 10 mi

Pressure: 30.00 "Hg

Humidity: 94%

Dew point: 72 °F

Location of Corpus ChristiLocation

Historic Weather in Corpus Christi — Graph


Corpus Christi temperature yesterday

Maximum temperature yesterday: 77 °F (at 11:04 AM)
Minimum temperature yesterday: 68 °F (at 2:51 AM)
Average temperature yesterday: 72 °F

Past Weeks' High & Low Weather Summary

High81 °F (Nov 16, 11:51 AM)100% (Nov 16, 5:51 AM)30.35 "Hg (Nov 16, 5:51 AM)
Low39 °F (Nov 23, 1:51 AM)21% (Nov 18, 2:51 PM)29.57 "Hg (Nov 17, 6:51 AM)
Average65 °F79%30.05 "Hg
* Reported Nov 12 4:51 PM — Nov 27 4:51 PM, Corpus Christi, Weather by CustomWeather, © 2015

Note: Actual official high and low records may vary slightly from our data, if they occured in-between our weather recording intervals... More about our weather records


Corpus Christi weather history for previous 24 hours

Time TempWeatherWind HumidityBarometerVisibility
4:51 PM
Fri, Nov 27
75 °FCloudy.20 mph90%30.00 "Hg10 mi
3:51 PM76 °FMostly cloudy.21 mph88%30.00 "Hg10 mi
2:51 PM77 °FMostly cloudy.24 mph85%30.00 "Hg10 mi
1:51 PM77 °FCloudy.22 mph85%30.03 "Hg10 mi
12:51 PM78 °FMostly cloudy.23 mph84%30.05 "Hg10 mi
11:51 AM78 °FCloudy.25 mph82%30.06 "Hg10 mi
10:51 AM77 °FMostly cloudy.23 mph85%30.08 "Hg10 mi
9:51 AM74 °FMostly cloudy.17 mph94%30.09 "Hg10 mi
8:51 AM73 °FCloudy.13 mph97%30.08 "Hg10 mi
7:51 AM72 °FLow clouds.12 mph97%30.06 "Hg10 mi
6:51 AM72 °FLight rain. Mostly cloudy.13 mph97%30.05 "Hg10 mi
5:51 AM71 °FLow clouds.16 mph100%30.04 "Hg10 mi
4:51 AM71 °FMostly cloudy.16 mph100%30.03 "Hg10 mi
3:51 AM71 °FMostly cloudy.17 mph100%30.04 "Hg10 mi
2:51 AM71 °FOvercast.15 mph100%30.04 "Hg10 mi
1:51 AM72 °FMostly cloudy.16 mph97%30.05 "Hg10 mi
12:51 AM72 °FOvercast.16 mph97%30.06 "Hg10 mi
11:51 PM
Thu, Nov 26
72 °FPassing clouds.16 mph100%30.08 "Hg10 mi
10:51 PM72 °FMostly cloudy.15 mph100%30.08 "Hg10 mi
9:51 PM72 °FMostly cloudy.15 mph100%30.08 "Hg10 mi
8:51 PM72 °FMostly cloudy.15 mph100%30.08 "Hg10 mi
7:51 PM72 °FMostly cloudy.13 mph100%30.06 "Hg10 mi
Weather by CustomWeather, © 2015

See weather overviewHow to use our weather pages